Regional Weather Roundup
Issued by NWS

Home | Current Version | Previous Version | Graphics & Text | Print | Product List | Glossary On
Versions: 1 2 3 4 5 6 7 8 9 10 11 12 13 14 15 16 17 18 19 20 21 22 23 24 25 26 27 28 29 30 31 32 33 34 35 36 37 38 39 40 41 42 43 44 45 46 47 48 49 50
000
ASUS45 KCYS 011610
RWRWY

WYOMING REGIONAL WEATHER ROUNDUP
NATIONAL WEATHER SERVICE CHEYENNE WY
1000 AM MDT WED APR 01 2015

NOTE:  "FAIR" INDICATES FEW OR NO CLOUDS BELOW 12,000 FEET
WITH NO SIGNIFICANT WEATHER AND/OR OBSTRUCTIONS TO VISIBILITY.

WYZ001-011700-
YELLOWSTONE NATIONAL PARK

CITY           SKY/WX    TMP DP  RH WIND       PRES   REMARKS
LK YELLOWSTONE   N/A     26  16  65 NW9       29.93  WCI  17
W YELLOWSTONE  NOT AVBL

$$
WYZ002>013-054>058-071-098>099-011700-
NORTHERN WYOMING

CITY           SKY/WX    TMP DP  RH WIND       PRES   REMARKS
JACKSON        CLOUDY    34  18  51 S16       29.99R WCI  23
CODY           FAIR      43  18  36 NW18G26   29.87R
GREYBULL       CLOUDY    45  20  36 NW21G28   29.85R
WORLAND        FAIR      46  22  38 N20G30    29.86R
SHERIDAN       CLOUDY    42  25  50 NW25G32   29.88R
BUFFALO        CLOUDY    38  24  57 N31G44    29.83R WCI  25
GILLETTE       CLOUDY    42  26  53 NW24G35   29.80R
HULETT         CLOUDY    45  30  57 NW14G21   29.79R
NEWCASTLE      FAIR      50  32  50 NW25G31   29.72R

$$
WYZ014>020-022>026-101>103-011700-
CENTRAL WYOMING

CITY           SKY/WX    TMP DP  RH WIND       PRES   REMARKS
BIG PINEY      FAIR      36   4  26 NW15      30.00R WCI  27
PINEDALE       FAIR      34   9  35 W14G22    29.99R WCI  24
DUBOIS         CLOUDY    32  10  40 W24G37    29.89R WCI  19
LANDER         NOT AVBL
RIVERTON       FAIR      50   6  16 NW24      29.83R
CASPER         FAIR      49  33  54 NE7       29.81R
DOUGLAS        FAIR      52  34  50 N14       29.79R

$$
WYZ021-027>030-104>119-011700-
SOUTHERN WYOMING

CITY           SKY/WX    TMP DP  RH WIND       PRES   REMARKS
EVANSTON       FAIR      31  10  41 W13G22    30.06S WCI  21
FORT BRIDGER   FAIR      37  11  34 W20       30.07S WCI  27
ROCK SPRINGS   FAIR      38  13  35 W31G39    30.00R WCI  25
DIXON          CLOUDY    45  22  40 W16       29.99R
RAWLINS        FAIR      44  21  40 W24G40    29.90R
SARATOGA       CLOUDY    45  23  42 W18G26    29.93R
LARAMIE        CLOUDY    52  25  35 NW9       29.86R
CHEYENNE       FAIR      60  26  27 W14       29.82S
TORRINGTON     FAIR      64  23  21 W10       29.71S
PINE BLUFFS    FAIR      63  27  25 NW28G35   29.76F

$$


USA.gov is the U.S. government's official web portal to all federal, state and local government web resources and services.